AFR818A FTTJ-LFPG

Flight info

Callsign AFR818A
Flight time N/A
Altitude 40000
Route FL UA607 DIR UB730 DJA UA605 CSO UR978 KAMER DCT EDINO DCT ROTIS DCT LOGNI/N0482F380 DCT MOKIP DCT ARFOZ DCT TINIL
Aircraft A359/H-SDE2E3GHIJ3J4J5LM1ORWXY/LB1D1

Departure

Time 2026-05-04 12:04
Airport N'Djamena International Airport (FTTJ)

Arrival

Time N/A
Airport Charles de Gaulle International Airport (LFPG)
Time Latitude Longitude Altitude Speed Heading
2026-05-04 11:48 12.12909 15.03233 981 ft 0 kts 98°
2026-05-04 11:55 12.12890 15.03237 991 ft 4 kts 169°
2026-05-04 11:55 12.12884 15.03248 991 ft 0 kts 316°
2026-05-04 11:57 12.12882 15.03245 995 ft 0 kts 325°
2026-05-04 11:58 12.12901 15.03230 991 ft 0 kts 323°
2026-05-04 12:00 12.12921 15.03219 988 ft 8 kts 339°
2026-05-04 12:00 12.12984 15.03223 987 ft 9 kts 356°
2026-05-04 12:00 12.13046 15.03198 991 ft 10 kts 326°
2026-05-04 12:00 12.13082 15.03140 990 ft 9 kts 283°
2026-05-04 12:01 12.13057 15.03081 991 ft 10 kts 226°
2026-05-04 12:01 12.12996 15.03015 992 ft 18 kts 226°
2026-05-04 12:02 12.12498 15.02511 988 ft 2 kts 276°
2026-05-04 12:03 12.12503 15.02507 987 ft 1 kts 309°
2026-05-04 12:03 12.12513 15.02507 988 ft 2 kts
2026-05-04 12:03 12.12527 15.02522 990 ft 5 kts 43°
2026-05-04 12:03 12.12572 15.02565 989 ft 22 kts 45°
2026-05-04 12:04 12.12875 15.02882 991 ft 101 kts 45°
2026-05-04 12:04 12.13532 15.03575 1004 ft 167 kts 44°
2026-05-04 12:04 12.14358 15.04460 1651 ft 175 kts 43°
2026-05-04 12:04 12.15163 15.05449 2314 ft 190 kts 41°
2026-05-04 12:05 12.16309 15.06080 2668 ft 193 kts
2026-05-04 12:05 12.17598 15.05739 2841 ft 200 kts 320°
2026-05-04 12:05 12.18713 15.04814 3047 ft 215 kts 323°
2026-05-04 12:05 12.20087 15.04081 3212 ft 233 kts 334°
2026-05-04 12:06 12.21125 15.03642 3400 ft 245 kts 337°
2026-05-04 12:06 12.22783 15.03038 3730 ft 259 kts 339°
2026-05-04 12:06 12.24520 15.02483 4222 ft 264 kts 341°
2026-05-04 12:06 12.26284 15.01951 4706 ft 271 kts 341°
2026-05-04 12:07 12.28107 15.01408 5219 ft 275 kts 343°
2026-05-04 12:07 12.29959 15.00851 5696 ft 280 kts 342°
2026-05-04 12:07 12.31839 15.00277 6183 ft 284 kts 343°
2026-05-04 12:07 12.33751 14.99684 6619 ft 288 kts 343°
2026-05-04 12:08 12.35674 14.99083 7156 ft 288 kts 345°
2026-05-04 12:08 12.37590 14.98480 7710 ft 289 kts 345°
2026-05-04 12:08 12.39517 14.97873 8209 ft 291 kts 345°
2026-05-04 12:08 12.41460 14.97260 8697 ft 293 kts 345°
2026-05-04 12:09 12.43411 14.96644 9221 ft 295 kts 346°
2026-05-04 12:09 12.45381 14.96023 9732 ft 297 kts 346°
2026-05-04 12:09 12.47375 14.95396 10097 ft 304 kts 346°
2026-05-04 12:09 12.49442 14.94750 10328 ft 316 kts 346°
2026-05-04 12:10 12.51590 14.94077 10550 ft 328 kts 346°
2026-05-04 12:10 12.53780 14.93389 10757 ft 339 kts 345°
2026-05-04 12:10 12.56071 14.92668 10958 ft 350 kts 345°
2026-05-04 12:10 12.58431 14.91924 11143 ft 360 kts 345°
2026-05-04 12:11 12.60854 14.91158 11324 ft 368 kts 345°
2026-05-04 12:11 12.63319 14.90379 11644 ft 372 kts 345°
2026-05-04 12:11 12.65801 14.89592 12022 ft 374 kts 345°
2026-05-04 12:11 12.68299 14.88801 12421 ft 376 kts 344°
2026-05-04 12:12 12.70798 14.88011 12830 ft 377 kts 344°
2026-05-04 12:12 12.73313 14.87216 13208 ft 379 kts 344°
2026-05-04 12:12 12.75848 14.86415 13582 ft 381 kts 343°
2026-05-04 12:12 12.78389 14.85613 13923 ft 383 kts 343°
2026-05-04 12:13 12.80934 14.84808 14315 ft 383 kts 344°
2026-05-04 12:14 12.98943 14.79112 16837 ft 392 kts 343°
2026-05-04 12:15 13.01588 14.78274 17196 ft 393 kts 343°
2026-05-04 12:15 13.04206 14.77444 17560 ft 395 kts 343°
2026-05-04 12:15 13.06837 14.76612 17921 ft 396 kts 343°
2026-05-04 12:15 13.09467 14.75781 18232 ft 398 kts 343°
2026-05-04 12:16 13.12086 14.74952 18494 ft 401 kts 343°
2026-05-04 12:16 13.14758 14.74106 18744 ft 403 kts 343°
2026-05-04 12:16 13.17457 14.73251 19014 ft 405 kts 343°
2026-05-04 12:16 13.20163 14.72393 19262 ft 408 kts 343°
2026-05-04 12:17 13.22883 14.71531 19547 ft 410 kts 343°
2026-05-04 12:17 13.25614 14.70664 19804 ft 412 kts 343°
2026-05-04 12:17 13.28356 14.69794 20054 ft 414 kts 343°
2026-05-04 12:17 13.31123 14.68916 20304 ft 417 kts 343°
2026-05-04 12:18 13.33899 14.68035 20570 ft 418 kts 343°
2026-05-04 12:18 13.36682 14.67152 20844 ft 420 kts 343°
2026-05-04 12:18 13.39484 14.66262 21031 ft 423 kts 343°
2026-05-04 12:18 13.42306 14.65366 21278 ft 425 kts 343°
2026-05-04 12:19 13.45133 14.64470 21587 ft 425 kts 342°
2026-05-04 12:19 13.47968 14.63570 21792 ft 427 kts 342°
2026-05-04 12:19 13.50818 14.62663 21934 ft 431 kts 342°
2026-05-04 12:19 13.53689 14.61750 22157 ft 433 kts 342°
2026-05-04 12:20 13.56572 14.60833 22412 ft 433 kts 342°
2026-05-04 12:20 13.59462 14.59912 22591 ft 437 kts 342°
2026-05-04 12:20 13.62373 14.58986 22755 ft 439 kts 342°
2026-05-04 12:20 13.65297 14.58056 22966 ft 441 kts 342°
2026-05-04 12:21 13.68230 14.57122 23178 ft 442 kts 342°
2026-05-04 12:21 13.71140 14.56195 23349 ft 445 kts 342°
2026-05-04 12:21 13.74105 14.55251 23499 ft 447 kts 341°
2026-05-04 12:21 13.77079 14.54304 23689 ft 448 kts 342°
2026-05-04 12:22 13.80053 14.53357 23924 ft 447 kts 341°
2026-05-04 12:22 13.83030 14.52409 24119 ft 448 kts 341°
2026-05-04 12:22 13.86013 14.51458 24289 ft 449 kts 341°
2026-05-04 12:22 13.88998 14.50506 24467 ft 450 kts 341°
2026-05-04 12:23 13.91995 14.49550 24640 ft 451 kts 341°
2026-05-04 12:23 13.95007 14.48589 24800 ft 453 kts 341°
2026-05-04 12:23 13.98020 14.47627 24969 ft 454 kts 341°
2026-05-04 12:23 14.01035 14.46665 25149 ft 454 kts 341°
2026-05-04 12:24 14.04065 14.45697 25309 ft 456 kts 341°
2026-05-04 12:24 14.07100 14.44727 25474 ft 457 kts 341°
2026-05-04 12:24 14.10102 14.43768 25648 ft 458 kts 341°
2026-05-04 12:24 14.13154 14.42793 25836 ft 459 kts 341°
2026-05-04 12:25 14.16211 14.41816 25987 ft 460 kts 341°
2026-05-04 12:25 14.19275 14.40836 26166 ft 461 kts 341°
2026-05-04 12:25 14.22345 14.39854 26344 ft 462 kts 341°
2026-05-04 12:25 14.25423 14.38869 26524 ft 464 kts 341°
2026-05-04 12:26 14.28513 14.37880 26685 ft 465 kts 341°
2026-05-04 12:26 14.31599 14.36893 26880 ft 466 kts 341°
2026-05-04 12:26 14.34701 14.35899 27082 ft 467 kts 341°
2026-05-04 12:26 14.37814 14.34902 27260 ft 469 kts 341°
2026-05-04 12:27 14.40938 14.33901 27448 ft 470 kts 341°
2026-05-04 12:27 14.44067 14.32914 27636 ft 471 kts 342°
2026-05-04 12:27 14.47211 14.31935 27825 ft 473 kts 342°
2026-05-04 12:27 14.50363 14.30959 28051 ft 473 kts 342°
2026-05-04 12:28 14.53474 14.29996 28307 ft 473 kts 341°
2026-05-04 12:28 14.56626 14.29018 28496 ft 474 kts 342°
2026-05-04 12:28 14.59795 14.28032 28663 ft 476 kts 342°
2026-05-04 12:28 14.62972 14.27042 28838 ft 477 kts 342°
2026-05-04 12:29 14.66155 14.26049 29048 ft 478 kts 341°
2026-05-04 12:29 14.69346 14.25052 29233 ft 480 kts 342°
2026-05-04 12:29 14.72547 14.24052 29399 ft 482 kts 342°
2026-05-04 12:29 14.75758 14.23049 29607 ft 483 kts 342°
2026-05-04 12:30 14.78976 14.22043 29820 ft 484 kts 342°
2026-05-04 12:30 14.82203 14.21034 29997 ft 485 kts 342°
2026-05-04 12:30 14.85433 14.20024 30210 ft 485 kts 342°
2026-05-04 12:30 14.88664 14.19013 30445 ft 485 kts 341°
2026-05-04 12:31 14.91896 14.18001 30633 ft 486 kts 341°
2026-05-04 12:31 14.95140 14.16986 30805 ft 487 kts 341°
2026-05-04 12:31 14.98394 14.15967 30995 ft 488 kts 341°
2026-05-04 12:31 15.01603 14.14962 31170 ft 489 kts 341°
2026-05-04 12:32 15.04872 14.13938 31353 ft 490 kts 341°
2026-05-04 12:32 15.11417 14.11886 31698 ft 492 kts 341°
2026-05-04 12:32 15.14690 14.10859 31859 ft 493 kts 341°
2026-05-04 12:33 15.17981 14.09827 32037 ft 494 kts 341°
2026-05-04 12:33 15.21266 14.08796 32216 ft 494 kts 341°
2026-05-04 12:33 15.24570 14.07760 32426 ft 494 kts 341°
2026-05-04 12:33 15.27862 14.06726 32617 ft 494 kts 340°
2026-05-04 12:34 15.31151 14.05693 32848 ft 493 kts 340°
2026-05-04 12:34 15.34419 14.04667 33089 ft 492 kts 340°
2026-05-04 12:34 15.37701 14.03635 33337 ft 491 kts 340°
2026-05-04 12:34 15.40963 14.02609 33582 ft 491 kts 340°
2026-05-04 12:35 15.44229 14.01582 33813 ft 490 kts 340°
2026-05-04 12:35 15.47491 14.00555 34035 ft 490 kts 340°
2026-05-04 12:35 15.50748 13.99530 34252 ft 489 kts 340°
2026-05-04 12:35 15.54002 13.98506 34457 ft 489 kts 340°
2026-05-04 12:36 15.57255 13.97481 34671 ft 489 kts 340°
2026-05-04 12:36 15.60508 13.96457 34905 ft 488 kts 340°
2026-05-04 12:36 15.63760 13.95431 35157 ft 487 kts 340°
2026-05-04 12:36 15.66987 13.94414 35396 ft 486 kts 339°
2026-05-04 12:37 15.68429 13.93960 35508 ft 486 kts 339°
2026-05-04 12:37 15.71626 13.92951 35757 ft 485 kts 339°
2026-05-04 12:37 15.74854 13.91934 35991 ft 484 kts 339°
2026-05-04 12:37 15.78081 13.90925 36202 ft 485 kts 339°
2026-05-04 12:38 15.81312 13.89930 36356 ft 486 kts 340°
2026-05-04 12:38 15.87853 13.87963 36486 ft 492 kts 340°
2026-05-04 12:39 15.94476 13.86058 36619 ft 495 kts 341°
2026-05-04 12:39 15.97809 13.85155 36743 ft 495 kts 341°
2026-05-04 12:39 16.01167 13.84296 36846 ft 496 kts 342°
2026-05-04 12:40 16.07898 13.82726 36981 ft 498 kts 343°
2026-05-04 12:40 16.14517 13.81366 36991 ft 501 kts 345°
2026-05-04 12:41 16.21173 13.80165 37019 ft 503 kts 346°
2026-05-04 12:41 16.28040 13.79055 37101 ft 502 kts 346°
2026-05-04 12:42 16.34955 13.77999 37201 ft 501 kts 346°
2026-05-04 12:42 16.41865 13.76961 37197 ft 501 kts 347°
2026-05-04 12:43 16.48778 13.75954 37247 ft 501 kts 347°
2026-05-04 12:43 16.55691 13.74995 37288 ft 501 kts 347°
2026-05-04 12:44 16.62619 13.74092 37311 ft 502 kts 347°
2026-05-04 12:44 16.69552 13.73269 37356 ft 501 kts 348°
2026-05-04 12:45 16.76494 13.72520 37367 ft 502 kts 348°
2026-05-04 12:45 16.83450 13.71830 37345 ft 503 kts 349°
2026-05-04 12:46 16.90427 13.71198 37336 ft 503 kts 349°
2026-05-04 12:46 16.97415 13.70628 37355 ft 504 kts 349°
2026-05-04 12:47 17.04416 13.70158 37349 ft 505 kts 351°
2026-05-04 12:47 17.11397 13.69800 37350 ft 505 kts 351°
2026-05-04 12:48 17.18425 13.69516 37355 ft 506 kts 352°
2026-05-04 12:48 17.25479 13.69305 37335 ft 507 kts 353°
2026-05-04 12:49 17.32537 13.69209 37369 ft 507 kts 353°
2026-05-04 12:49 17.39607 13.69257 37375 ft 508 kts 354°
2026-05-04 12:50 17.46679 13.69428 37335 ft 510 kts 355°
2026-05-04 12:50 17.53789 13.69766 37231 ft 512 kts 357°
2026-05-04 12:51 17.60136 13.70208 37153 ft 513 kts 358°